Meteo pe oră la

Astăzi, 27 Ianuarie, Miercuri

Timp Temperatura Precipitaţii Vânt Presiune Umiditate
00:00 +12°C° 0 mm 11 m/s 729 mmHg 42%
01:00 +11°C° 0 mm 9 m/s 729 mmHg 43%
02:00 +11°C° 0 mm 7 m/s 730 mmHg 44%
03:00 +10°C° 0 mm 6 m/s 731 mmHg 43%
04:00 +10°C° 0 mm 6 m/s 731 mmHg 43%
05:00 +9°C° 0 mm 5 m/s 732 mmHg 43%
06:00 +10°C° 0 mm 6 m/s 733 mmHg 43%
07:00 +10°C° 0 mm 6 m/s 733 mmHg 43%
08:00 +10°C° 0 mm 7 m/s 734 mmHg 42%
09:00 +11°C° 0 mm 7 m/s 735 mmHg 37%
10:00 +13°C° 0 mm 8 m/s 735 mmHg 32%
11:00 +15°C° 0 mm 8 m/s 736 mmHg 27%
12:00 +15°C° 0 mm 8 m/s 735 mmHg 26%
13:00 +16°C° 0 mm 7 m/s 734 mmHg 25%
14:00 +17°C° 0 mm 7 m/s 734 mmHg 24%
15:00 +16°C° 0 mm 5 m/s 734 mmHg 25%
16:00 +15°C° 0 mm 4 m/s 734 mmHg 26%
17:00 +14°C° 0 mm 3 m/s 735 mmHg 27%
18:00 +14°C° 0 mm 3 m/s 735 mmHg 29%
19:00 +14°C° 0 mm 2 m/s 736 mmHg 31%
20:00 +13°C° 0 mm 2 m/s 737 mmHg 32%
21:00 +13°C° 0 mm 2 m/s 737 mmHg 35%
22:00 +12°C° 0 mm 2 m/s 737 mmHg 37%
23:00 +12°C° 0 mm 2 m/s 738 mmHg 39%

Mâine, 28 Ianuarie, Joi

Timp Temperatura Precipitaţii Vânt Presiune Umiditate
00:00 +10°C° 0 mm 2 m/s 737 mmHg 42%
01:00 +10°C° 0 mm 3 m/s 737 mmHg 45%
02:00 +10°C° 0 mm 3 m/s 737 mmHg 48%
03:00 +9°C° 0 mm 3 m/s 737 mmHg 51%
04:00 +9°C° 0 mm 3 m/s 737 mmHg 54%
05:00 +7°C° 0 mm 4 m/s 738 mmHg 57%
06:00 +7°C° 0 mm 4 m/s 738 mmHg 59%
07:00 +7°C° 0 mm 4 m/s 739 mmHg 61%
08:00 +7°C° 0 mm 5 m/s 739 mmHg 63%
09:00 +9°C° 0 mm 5 m/s 739 mmHg 59%
10:00 +10°C° 0 mm 5 m/s 739 mmHg 54%
11:00 +12°C° 0 mm 5 m/s 738 mmHg 49%
12:00 +13°C° 0 mm 5 m/s 738 mmHg 46%
13:00 +14°C° 0 mm 5 m/s 737 mmHg 43%
14:00 +15°C° 0 mm 5 m/s 736 mmHg 41%
15:00 +15°C° 0 mm 4 m/s 736 mmHg 44%
16:00 +14°C° 0 mm 3 m/s 736 mmHg 46%
17:00 +14°C° 0 mm 3 m/s 735 mmHg 49%
18:00 +13°C° 0 mm 3 m/s 736 mmHg 54%
19:00 +13°C° 0 mm 3 m/s 736 mmHg 58%
20:00 +12°C° 0 mm 3 m/s 736 mmHg 62%
21:00 +11°C° 0 mm 3 m/s 736 mmHg 69%
22:00 +11°C° 0 mm 3 m/s 736 mmHg 75%
23:00 +10°C° 0 mm 3 m/s 736 mmHg 82%

Poimâine, 29 Ianuarie, Vineri

Timp Temperatura Precipitaţii Vânt Presiune Umiditate
00:00 +10°C° 0 mm 3 m/s 735 mmHg 84%
01:00 +10°C° 0 mm 3 m/s 735 mmHg 86%
02:00 +10°C° 0 mm 3 m/s 734 mmHg 89%
03:00 +10°C° 0 mm 3 m/s 734 mmHg 90%
04:00 +10°C° 0 mm 3 m/s 733 mmHg 92%
05:00 +10°C° 0 mm 3 m/s 733 mmHg 93%
06:00 +11°C° 0 mm 4 m/s 733 mmHg 91%
07:00 +10°C° 0 mm 5 m/s 733 mmHg 89%
08:00 +11°C° 0 mm 7 m/s 733 mmHg 87%
09:00 +14°C° 0 mm 6 m/s 732 mmHg 80%
10:00 +15°C° 0 mm 6 m/s 732 mmHg 74%
11:00 +16°C° 0 mm 6 m/s 731 mmHg 68%
12:00 +17°C° 0 mm 6 m/s 730 mmHg 66%
13:00 +19°C° 0 mm 6 m/s 730 mmHg 65%
14:00 +19°C° 0 mm 6 m/s 729 mmHg 63%
15:00 +19°C° 0 mm 6 m/s 728 mmHg 65%
16:00 +19°C° 0 mm 6 m/s 728 mmHg 67%
17:00 +17°C° 0 mm 5 m/s 727 mmHg 69%
18:00 +17°C° 0 mm 5 m/s 727 mmHg 73%
19:00 +16°C° 0 mm 5 m/s 727 mmHg 76%
20:00 +15°C° 0 mm 5 m/s 727 mmHg 80%
21:00 +15°C° 0 mm 6 m/s 727 mmHg 82%
22:00 +15°C° 0 mm 6 m/s 726 mmHg 85%
23:00 +15°C° 0 mm 6 m/s 726 mmHg 88%

30 Ianuarie, Sâmbătă

Timp Temperatura Precipitaţii Vânt Presiune Umiditate
00:00 +15°C° 0 mm 6 m/s 725 mmHg 89%
01:00 +15°C° 0 mm 5 m/s 724 mmHg 91%
02:00 +15°C° 0 mm 5 m/s 724 mmHg 92%
03:00 +14°C° 0 mm 4 m/s 723 mmHg 93%
04:00 +14°C° 0 mm 3 m/s 723 mmHg 94%
05:00 +14°C° 0 mm 2 m/s 723 mmHg 95%
06:00 +14°C° 0 mm 4 m/s 724 mmHg 89%
07:00 +15°C° 0 mm 7 m/s 725 mmHg 82%
08:00 +16°C° 0 mm 9 m/s 726 mmHg 76%
09:00 +17°C° 0 mm 8 m/s 726 mmHg 64%
10:00 +20°C° 0 mm 8 m/s 726 mmHg 52%
11:00 +22°C° 0 mm 7 m/s 726 mmHg 39%
12:00 +23°C° 0 mm 6 m/s 726 mmHg 35%
13:00 +25°C° 0 mm 5 m/s 726 mmHg 30%
14:00 +26°C° 0 mm 4 m/s 725 mmHg 25%
15:00 +25°C° 0 mm 4 m/s 725 mmHg 26%
16:00 +24°C° 0 mm 3 m/s 725 mmHg 26%
17:00 +22°C° 0 mm 3 m/s 726 mmHg 26%
18:00 +21°C° 0 mm 3 m/s 726 mmHg 26%
19:00 +19°C° 0 mm 3 m/s 727 mmHg 25%
20:00 +17°C° 0 mm 2 m/s 727 mmHg 25%
21:00 +16°C° 0 mm 2 m/s 727 mmHg 28%
22:00 +16°C° 0 mm 1 m/s 728 mmHg 31%
23:00 +15°C° 0 mm 1 m/s 728 mmHg 34%

31 Ianuarie, Duminică

Timp Temperatura Precipitaţii Vânt Presiune Umiditate
00:00 +14°C° 0 mm 1 m/s 728 mmHg 33%
01:00 +14°C° 0 mm 1 m/s 728 mmHg 32%
02:00 +14°C° 0 mm 1 m/s 729 mmHg 31%
03:00 +13°C° 0 mm 1 m/s 729 mmHg 31%
04:00 +13°C° 0 mm 2 m/s 729 mmHg 32%
05:00 +13°C° 0 mm 2 m/s 729 mmHg 32%
06:00 +14°C° 0 mm 2 m/s 730 mmHg 32%
07:00 +14°C° 0 mm 3 m/s 731 mmHg 31%
08:00 +14°C° 0 mm 3 m/s 732 mmHg 31%
09:00 +17°C° 0 mm 4 m/s 732 mmHg 28%
10:00 +19°C° 0 mm 4 m/s 732 mmHg 25%
11:00 +21°C° 0 mm 5 m/s 733 mmHg 21%
12:00 +21°C° 0 mm 4 m/s 732 mmHg 21%
13:00 +22°C° 0 mm 4 m/s 732 mmHg 20%
14:00 +23°C° 0 mm 4 m/s 732 mmHg 19%
15:00 +22°C° 0 mm 3 m/s 732 mmHg 23%
16:00 +21°C° 0 mm 2 m/s 732 mmHg 26%
17:00 +20°C° 0 mm 2 m/s 732 mmHg 29%
18:00 +19°C° 0 mm 2 m/s 733 mmHg 31%
19:00 +18°C° 0 mm 2 m/s 733 mmHg 33%
20:00 +17°C° 0 mm 3 m/s 734 mmHg 35%
21:00 +16°C° 0 mm 3 m/s 734 mmHg 38%
22:00 +14°C° 0 mm 3 m/s 734 mmHg 42%
23:00 +13°C° 0 mm 3 m/s 734 mmHg 46%

1 Februarie, Luni

Timp Temperatura Precipitaţii Vânt Presiune Umiditate
00:00 +13°C° 0 mm 3 m/s 734 mmHg 49%
01:00 +12°C° 0 mm 3 m/s 734 mmHg 52%
02:00 +11°C° 0 mm 3 m/s 734 mmHg 55%
03:00 +12°C° 0 mm 2 m/s 734 mmHg 58%
04:00 +10°C° 0 mm 2 m/s 734 mmHg 61%
05:00 +10°C° 0 mm 2 m/s 734 mmHg 64%
06:00 +10°C° 0 mm 2 m/s 734 mmHg 61%
07:00 +12°C° 0 mm 2 m/s 735 mmHg 59%
08:00 +12°C° 0 mm 3 m/s 735 mmHg 57%
09:00 +13°C° 0 mm 3 m/s 735 mmHg 50%
10:00 +15°C° 0 mm 4 m/s 735 mmHg 44%
11:00 +18°C° 0 mm 4 m/s 735 mmHg 37%
12:00 +19°C° 0 mm 4 m/s 734 mmHg 35%
13:00 +20°C° 0 mm 5 m/s 733 mmHg 33%
14:00 +20°C° 0 mm 5 m/s 732 mmHg 31%
15:00 +20°C° 0 mm 4 m/s 732 mmHg 33%
16:00 +19°C° 0 mm 4 m/s 732 mmHg 35%
17:00 +19°C° 0 mm 4 m/s 731 mmHg 37%
18:00 +17°C° 0 mm 3 m/s 732 mmHg 38%
19:00 +16°C° 0 mm 3 m/s 732 mmHg 39%
20:00 +14°C° 0 mm 3 m/s 732 mmHg 40%
21:00 +14°C° 0 mm 3 m/s 732 mmHg 42%
22:00 +13°C° 0 mm 3 m/s 732 mmHg 43%
23:00 +13°C° 0 mm 3 m/s 732 mmHg 45%
Arată mai mult

Formular de consimțământ

Meteoprog și furnizorii noștri de servicii pot stoca și accesa date personale, precum cookies, identificatori de dispozitiv sau alte tehnologii similare pe dispozitivul dumneavoastră și procesa astfel de date pentru a personaliza conținutul și reclamele, dar și pentru a oferi caracteristici de social media și pentru a analiza traficul.

  • Stocarea și/sau accesarea informațiilor pe dispozitivul dumneavoastră

    Cookies, identificatori de dispozitiv sau alte informații pot fi stocate sau accesate pe dispozitiv în scopurile indicate mai sus.

  • Reclame și conținut personalizat, evaluarea reclamelor și a conținutului, informații despre audiențe și dezvoltarea produselor

    Reclamele și conținutul pot fi personalizate pe baza unui profil. Pot fi adăugate date suplimentare pentru a personaliza mai bine reclamele și conținutul. Performanța reclamelor și conținutului poate fi măsurată. Pot fi obținute informații despre utilizatorii care au văzut reclamele și conținutul. Aceste date pot fi utilizate pentru a dezvolta sau îmbunătăți experiența utilizatorilor, sistemele și software-ul.

Dând clic pe ‘Sunt de acord’, permiteți utilizarea cookie-urilor menționate, a identificatorilor de dispozitiv, balizelor web sau altor tehnologii similare. Setările pot fi modificate din browser-ul dispozitivului dumneavoastră.

În anumite scopuri, interesele legitime pot prima asupra consimțământului. Puteți citi mai multe informații în acest sens în Politica privind Confidențialitatea Datelor și Cookie.